ラインムート第2彗星

44P/Reinmuth 2 (2022)

English version
Home page
Updated on April 15, 2023

---------------------------------------------------------------------

・ プロフィール

・ 写真集

・ 軌道要素

Epoch 2023 Feb. 25.0 TT = JDT 2460000.5
T 2022 Apr. 23.03328 TT                                 Rudenko
q   2.1122081            (2000.0)            P               Q
n   0.13910649     Peri.   58.04105     +0.95918356     +0.26505933
a   3.6889643      Node   286.42878     -0.28148877     +0.86162677
e   0.4274252      Incl.    5.89675     -0.02703661     +0.43283122
P   7.09
>From 1761 observations 2008 July 2-2023 Feb. 21, mean residual 0".6.
     Nongravitational parameters A1 = -0.02, A2 = -0.0633.

・ 星図

・ 光度変化

        m1 = 10.6 + 5 logΔ + 13.0 log r  [ ,0]  (              〜2022年 4月23日)
        m1 = 11.6 + 5 logΔ + 10.0 log r  [0, ]  (2022年 4月23日〜              )

---------------------------------------------------------------------

軌道要素はM.P.E.C. 2023-D72に掲載されたものです。
星図はステラナビゲータ Ver.10 (アストロアーツ) で作成したものです。
光度グラフはComet for Windowsで作成したものです。

---------------------------------------------------------------------

Copyright(C) Seiichi Yoshida (comet@aerith.net). All rights reserved.